owner,sensor,date,latitude,longitude,air_pressure(mBar),qcFlag 
COMPS,ioos:station:USF.COMPS:EGK:1,2009-09-01T00:00:00Z,27.6010,-82.7510,1016.1,1111122 
COMPS,ioos:station:USF.COMPS:EGK:1,2009-09-01T00:06:00Z,27.6010,-82.7510,1016.1,1111122 
COMPS,ioos:station:USF.COMPS:EGK:1,2009-09-01T00:12:00Z,27.6010,-82.7510,1016.1,1111122 
COMPS,ioos:station:USF.COMPS:EGK:1,2009-09-01T00:18:00Z,27.6010,-82.7510,1016.12,1111122 
COMPS,ioos:station:USF.COMPS:EGK:1,2009-09-01T00:24:00Z,27.6010,-82.7510,1016.14,1111122 
COMPS,ioos:station:USF.COMPS:EGK:1,2009-09-01T00:30:00Z,27.6010,-82.7510,1016.2,1111122 
COMPS,ioos:station:USF.COMPS:EGK:1,2009-09-01T00:36:00Z,27.6010,-82.7510,1016.21,1111122 
COMPS,ioos:station:USF.COMPS:EGK:1,2009-09-01T00:42:00Z,27.6010,-82.7510,1016.21,1111122 
COMPS,ioos:station:USF.COMPS:EGK:1,2009-09-01T00:48:00Z,27.6010,-82.7510,1016.34,1111122 
COMPS,ioos:station:USF.COMPS:EGK:1,2009-09-01T00:54:00Z,27.6010,-82.7510,1016.3,1111122 
COMPS,ioos:station:USF.COMPS:EGK:1,2009-09-01T01:00:00Z,27.6010,-82.7510,1016.34,1111122 
COMPS,ioos:station:USF.COMPS:EGK:1,2009-09-01T01:06:00Z,27.6010,-82.7510,1016.32,1111122 
COMPS,ioos:station:USF.COMPS:EGK:1,2009-09-01T01:12:00Z,27.6010,-82.7510,1016.34,1111122 
COMPS,ioos:station:USF.COMPS:EGK:1,2009-09-01T01:18:00Z,27.6010,-82.7510,1016.53,1111122 
COMPS,ioos:station:USF.COMPS:EGK:1,2009-09-01T01:24:00Z,27.6010,-82.7510,1016.68,1111122 
COMPS,ioos:station:USF.COMPS:EGK:1,2009-09-01T01:30:00Z,27.6010,-82.7510,1016.76,1111122 
COMPS,ioos:station:USF.COMPS:EGK:1,2009-09-01T01:36:00Z,27.6010,-82.7510,1016.76,1111122 
COMPS,ioos:station:USF.COMPS:EGK:1,2009-09-01T01:42:00Z,27.6010,-82.7510,1016.82,1111122 
COMPS,ioos:station:USF.COMPS:EGK:1,2009-09-01T01:48:00Z,27.6010,-82.7510,1017.0,1111122 
COMPS,ioos:station:USF.COMPS:EGK:1,2009-09-01T01:54:00Z,27.6010,-82.7510,1017.16,1111122 
COMPS,ioos:station:USF.COMPS:EGK:1,2009-09-01T02:00:00Z,27.6010,-82.7510,1017.32,1111122 
COMPS,ioos:station:USF.COMPS:EGK:1,2009-09-01T02:06:00Z,27.6010,-82.7510,1017.49,1111122 
COMPS,ioos:station:USF.COMPS:EGK:1,2009-09-01T02:12:00Z,27.6010,-82.7510,1017.62,1111122 
COMPS,ioos:station:USF.COMPS:EGK:1,2009-09-01T02:18:00Z,27.6010,-82.7510,1017.58,1111122 
COMPS,ioos:station:USF.COMPS:EGK:1,2009-09-01T02:24:00Z,27.6010,-82.7510,1017.57,1111122 
COMPS,ioos:station:USF.COMPS:EGK:1,2009-09-01T02:30:00Z,27.6010,-82.7510,1017.54,1111122 
COMPS,ioos:station:USF.COMPS:EGK:1,2009-09-01T02:36:00Z,27.6010,-82.7510,1017.57,1111122 
COMPS,ioos:station:USF.COMPS:EGK:1,2009-09-01T02:42:00Z,27.6010,-82.7510,1017.7,1111122 
COMPS,ioos:station:USF.COMPS:EGK:1,2009-09-01T02:48:00Z,27.6010,-82.7510,1017.65,1111122 
COMPS,ioos:station:USF.COMPS:EGK:1,2009-09-01T02:54:00Z,27.6010,-82.7510,1017.65,1111122 
COMPS,ioos:station:USF.COMPS:EGK:1,2009-09-01T03:00:00Z,27.6010,-82.7510,1017.78,1111122 
COMPS,ioos:station:USF.COMPS:EGK:1,2009-09-01T03:06:00Z,27.6010,-82.7510,1017.76,1111122 
COMPS,ioos:station:USF.COMPS:EGK:1,2009-09-01T03:12:00Z,27.6010,-82.7510,1017.66,1111122 
COMPS,ioos:station:USF.COMPS:EGK:1,2009-09-01T03:18:00Z,27.6010,-82.7510,1017.53,1111122 
COMPS,ioos:station:USF.COMPS:EGK:1,2009-09-01T03:24:00Z,27.6010,-82.7510,1017.44,1111122 
COMPS,ioos:station:USF.COMPS:EGK:1,2009-09-01T03:30:00Z,27.6010,-82.7510,1017.49,1111122 
COMPS,ioos:station:USF.COMPS:EGK:1,2009-09-01T03:36:00Z,27.6010,-82.7510,1017.62,1111122 
COMPS,ioos:station:USF.COMPS:EGK:1,2009-09-01T03:42:00Z,27.6010,-82.7510,1017.57,1111122 
COMPS,ioos:station:USF.COMPS:EGK:1,2009-09-01T03:48:00Z,27.6010,-82.7510,1017.58,1111122 
COMPS,ioos:station:USF.COMPS:EGK:1,2009-09-01T03:54:00Z,27.6010,-82.7510,1017.56,1111122 
COMPS,ioos:station:USF.COMPS:EGK:1,2009-09-01T04:00:00Z,27.6010,-82.7510,1017.46,1111122 
COMPS,ioos:station:USF.COMPS:EGK:1,2009-09-01T04:06:00Z,27.6010,-82.7510,1017.42,1111122 
COMPS,ioos:station:USF.COMPS:EGK:1,2009-09-01T04:12:00Z,27.6010,-82.7510,1017.26,1111122 
COMPS,ioos:station:USF.COMPS:EGK:1,2009-09-01T04:18:00Z,27.6010,-82.7510,1017.08,1111122 
COMPS,ioos:station:USF.COMPS:EGK:1,2009-09-01T04:24:00Z,27.6010,-82.7510,1017.12,1111122 
COMPS,ioos:station:USF.COMPS:EGK:1,2009-09-01T04:30:00Z,27.6010,-82.7510,1017.13,1111122 
COMPS,ioos:station:USF.COMPS:EGK:1,2009-09-01T04:36:00Z,27.6010,-82.7510,1017.16,1111122 
COMPS,ioos:station:USF.COMPS:EGK:1,2009-09-01T04:42:00Z,27.6010,-82.7510,1017.2,1111122 
COMPS,ioos:station:USF.COMPS:EGK:1,2009-09-01T04:48:00Z,27.6010,-82.7510,1017.26,1111122 
COMPS,ioos:station:USF.COMPS:EGK:1,2009-09-01T04:54:00Z,27.6010,-82.7510,1017.08,1111122 
COMPS,ioos:station:USF.COMPS:EGK:1,2009-09-01T05:00:00Z,27.6010,-82.7510,1016.89,1111122 
COMPS,ioos:station:USF.COMPS:EGK:1,2009-09-01T05:06:00Z,27.6010,-82.7510,1016.84,1111122 
COMPS,ioos:station:USF.COMPS:EGK:1,2009-09-01T05:12:00Z,27.6010,-82.7510,1016.78,1111122 
COMPS,ioos:station:USF.COMPS:EGK:1,2009-09-01T05:18:00Z,27.6010,-82.7510,1016.73,1111122 
COMPS,ioos:station:USF.COMPS:EGK:1,2009-09-01T05:24:00Z,27.6010,-82.7510,1016.64,1111122 
COMPS,ioos:station:USF.COMPS:EGK:1,2009-09-01T05:30:00Z,27.6010,-82.7510,1016.49,1111122 
COMPS,ioos:station:USF.COMPS:EGK:1,2009-09-01T05:36:00Z,27.6010,-82.7510,1016.46,1111122 
COMPS,ioos:station:USF.COMPS:EGK:1,2009-09-01T05:42:00Z,27.6010,-82.7510,1016.34,1111122 
COMPS,ioos:station:USF.COMPS:EGK:1,2009-09-01T05:48:00Z,27.6010,-82.7510,1016.14,1111122 
COMPS,ioos:station:USF.COMPS:EGK:1,2009-09-01T05:54:00Z,27.6010,-82.7510,1016.08,1111122 
COMPS,ioos:station:USF.COMPS:EGK:1,2009-09-01T06:00:00Z,27.6010,-82.7510,1016.01,1111122 
COMPS,ioos:station:USF.COMPS:EGK:1,2009-09-01T06:06:00Z,27.6010,-82.7510,1016.05,1111122 
COMPS,ioos:station:USF.COMPS:EGK:1,2009-09-01T06:12:00Z,27.6010,-82.7510,1016.2,1111122 
COMPS,ioos:station:USF.COMPS:EGK:1,2009-09-01T06:18:00Z,27.6010,-82.7510,1016.21,1111122 
COMPS,ioos:station:USF.COMPS:EGK:1,2009-09-01T06:24:00Z,27.6010,-82.7510,1016.22,1111122 
COMPS,ioos:station:USF.COMPS:EGK:1,2009-09-01T06:30:00Z,27.6010,-82.7510,1016.21,1111122 
COMPS,ioos:station:USF.COMPS:EGK:1,2009-09-01T06:36:00Z,27.6010,-82.7510,1016.14,1111122 
COMPS,ioos:station:USF.COMPS:EGK:1,2009-09-01T06:42:00Z,27.6010,-82.7510,1016.02,1111122 
COMPS,ioos:station:USF.COMPS:EGK:1,2009-09-01T06:48:00Z,27.6010,-82.7510,1015.94,1111122 
COMPS,ioos:station:USF.COMPS:EGK:1,2009-09-01T06:54:00Z,27.6010,-82.7510,1015.93,1111122 
COMPS,ioos:station:USF.COMPS:EGK:1,2009-09-01T07:00:00Z,27.6010,-82.7510,1015.82,1111122 
COMPS,ioos:station:USF.COMPS:EGK:1,2009-09-01T07:06:00Z,27.6010,-82.7510,1015.81,1111122 
COMPS,ioos:station:USF.COMPS:EGK:1,2009-09-01T07:12:00Z,27.6010,-82.7510,1015.82,1111122 
COMPS,ioos:station:USF.COMPS:EGK:1,2009-09-01T07:18:00Z,27.6010,-82.7510,1015.81,1111122 
COMPS,ioos:station:USF.COMPS:EGK:1,2009-09-01T07:24:00Z,27.6010,-82.7510,1015.74,1111122 
COMPS,ioos:station:USF.COMPS:EGK:1,2009-09-01T07:30:00Z,27.6010,-82.7510,1015.74,1111122 
COMPS,ioos:station:USF.COMPS:EGK:1,2009-09-01T07:36:00Z,27.6010,-82.7510,1015.77,1111122 
COMPS,ioos:station:USF.COMPS:EGK:1,2009-09-01T07:42:00Z,27.6010,-82.7510,1015.68,1111122 
COMPS,ioos:station:USF.COMPS:EGK:1,2009-09-01T07:48:00Z,27.6010,-82.7510,1015.62,1111122 
COMPS,ioos:station:USF.COMPS:EGK:1,2009-09-01T07:54:00Z,27.6010,-82.7510,1015.54,1111122 
COMPS,ioos:station:USF.COMPS:EGK:1,2009-09-01T08:00:00Z,27.6010,-82.7510,1015.53,1111122 
COMPS,ioos:station:USF.COMPS:EGK:1,2009-09-01T08:06:00Z,27.6010,-82.7510,1015.54,1111122 
COMPS,ioos:station:USF.COMPS:EGK:1,2009-09-01T08:12:00Z,27.6010,-82.7510,1015.56,1111122 
COMPS,ioos:station:USF.COMPS:EGK:1,2009-09-01T08:18:00Z,27.6010,-82.7510,1015.56,1111122 
COMPS,ioos:station:USF.COMPS:EGK:1,2009-09-01T08:24:00Z,27.6010,-82.7510,1015.57,1111122 
COMPS,ioos:station:USF.COMPS:EGK:1,2009-09-01T08:30:00Z,27.6010,-82.7510,1015.64,1111122 
COMPS,ioos:station:USF.COMPS:EGK:1,2009-09-01T08:36:00Z,27.6010,-82.7510,1015.69,1111122 
COMPS,ioos:station:USF.COMPS:EGK:1,2009-09-01T08:42:00Z,27.6010,-82.7510,1015.72,1111122 
COMPS,ioos:station:USF.COMPS:EGK:1,2009-09-01T08:48:00Z,27.6010,-82.7510,1015.74,1111122 
COMPS,ioos:station:USF.COMPS:EGK:1,2009-09-01T08:54:00Z,27.6010,-82.7510,1015.69,1111122 
COMPS,ioos:station:USF.COMPS:EGK:1,2009-09-01T09:00:00Z,27.6010,-82.7510,1015.77,1111122 
COMPS,ioos:station:USF.COMPS:EGK:1,2009-09-01T09:06:00Z,27.6010,-82.7510,1015.86,1111122 
COMPS,ioos:station:USF.COMPS:EGK:1,2009-09-01T09:12:00Z,27.6010,-82.7510,1015.88,1111122 
COMPS,ioos:station:USF.COMPS:EGK:1,2009-09-01T09:18:00Z,27.6010,-82.7510,1015.73,1111122 
COMPS,ioos:station:USF.COMPS:EGK:1,2009-09-01T09:24:00Z,27.6010,-82.7510,1015.78,1111122 
COMPS,ioos:station:USF.COMPS:EGK:1,2009-09-01T09:30:00Z,27.6010,-82.7510,1015.92,1111122 
COMPS,ioos:station:USF.COMPS:EGK:1,2009-09-01T09:36:00Z,27.6010,-82.7510,1016.0,1111122 
COMPS,ioos:station:USF.COMPS:EGK:1,2009-09-01T09:42:00Z,27.6010,-82.7510,1015.92,1111122 
COMPS,ioos:station:USF.COMPS:EGK:1,2009-09-01T09:48:00Z,27.6010,-82.7510,1015.92,1111122 
COMPS,ioos:station:USF.COMPS:EGK:1,2009-09-01T09:54:00Z,27.6010,-82.7510,1015.97,1111122 
COMPS,ioos:station:USF.COMPS:EGK:1,2009-09-01T10:00:00Z,27.6010,-82.7510,1015.9,1111122 
COMPS,ioos:station:USF.COMPS:EGK:1,2009-09-01T10:06:00Z,27.6010,-82.7510,1015.89,1111122 
COMPS,ioos:station:USF.COMPS:EGK:1,2009-09-01T10:12:00Z,27.6010,-82.7510,1015.84,1111122 
COMPS,ioos:station:USF.COMPS:EGK:1,2009-09-01T10:18:00Z,27.6010,-82.7510,1015.84,1111122 
COMPS,ioos:station:USF.COMPS:EGK:1,2009-09-01T10:24:00Z,27.6010,-82.7510,1015.77,1111122 
COMPS,ioos:station:USF.COMPS:EGK:1,2009-09-01T10:30:00Z,27.6010,-82.7510,1015.77,1111122 
COMPS,ioos:station:USF.COMPS:EGK:1,2009-09-01T10:36:00Z,27.6010,-82.7510,1015.69,1111122 
COMPS,ioos:station:USF.COMPS:EGK:1,2009-09-01T10:42:00Z,27.6010,-82.7510,1015.85,1111122 
COMPS,ioos:station:USF.COMPS:EGK:1,2009-09-01T10:48:00Z,27.6010,-82.7510,1016.0,1111122 
COMPS,ioos:station:USF.COMPS:EGK:1,2009-09-01T10:54:00Z,27.6010,-82.7510,1016.0,1111122 
COMPS,ioos:station:USF.COMPS:EGK:1,2009-09-01T11:00:00Z,27.6010,-82.7510,1016.01,1111122 
COMPS,ioos:station:USF.COMPS:EGK:1,2009-09-01T11:06:00Z,27.6010,-82.7510,1016.01,1111122 
COMPS,ioos:station:USF.COMPS:EGK:1,2009-09-01T11:12:00Z,27.6010,-82.7510,1016.01,1111122 
COMPS,ioos:station:USF.COMPS:EGK:1,2009-09-01T11:18:00Z,27.6010,-82.7510,1015.94,1111122 
COMPS,ioos:station:USF.COMPS:EGK:1,2009-09-01T11:24:00Z,27.6010,-82.7510,1015.96,1111122 
COMPS,ioos:station:USF.COMPS:EGK:1,2009-09-01T11:30:00Z,27.6010,-82.7510,1016.01,1111122 
COMPS,ioos:station:USF.COMPS:EGK:1,2009-09-01T11:36:00Z,27.6010,-82.7510,1016.04,1111122 
COMPS,ioos:station:USF.COMPS:EGK:1,2009-09-01T11:42:00Z,27.6010,-82.7510,1016.28,1111122 
COMPS,ioos:station:USF.COMPS:EGK:1,2009-09-01T11:48:00Z,27.6010,-82.7510,1016.48,1111122 
COMPS,ioos:station:USF.COMPS:EGK:1,2009-09-01T11:54:00Z,27.6010,-82.7510,1016.4,1111122 
COMPS,ioos:station:USF.COMPS:EGK:1,2009-09-01T12:00:00Z,27.6010,-82.7510,1016.45,1111122 
COMPS,ioos:station:USF.COMPS:EGK:1,2009-09-01T12:06:00Z,27.6010,-82.7510,1016.38,1111122 
COMPS,ioos:station:USF.COMPS:EGK:1,2009-09-01T12:12:00Z,27.6010,-82.7510,1016.46,1111122 
COMPS,ioos:station:USF.COMPS:EGK:1,2009-09-01T12:18:00Z,27.6010,-82.7510,1016.48,1111122 
COMPS,ioos:station:USF.COMPS:EGK:1,2009-09-01T12:24:00Z,27.6010,-82.7510,1016.58,1111122 
COMPS,ioos:station:USF.COMPS:EGK:1,2009-09-01T12:30:00Z,27.6010,-82.7510,1016.82,1111122 
COMPS,ioos:station:USF.COMPS:EGK:1,2009-09-01T12:36:00Z,27.6010,-82.7510,1016.84,1111122 
COMPS,ioos:station:USF.COMPS:EGK:1,2009-09-01T12:42:00Z,27.6010,-82.7510,1016.8,1111122 
COMPS,ioos:station:USF.COMPS:EGK:1,2009-09-01T12:48:00Z,27.6010,-82.7510,1016.93,1111122 
COMPS,ioos:station:USF.COMPS:EGK:1,2009-09-01T12:54:00Z,27.6010,-82.7510,1017.06,1111122 
COMPS,ioos:station:USF.COMPS:EGK:1,2009-09-01T13:00:00Z,27.6010,-82.7510,1017.28,1111122 
COMPS,ioos:station:USF.COMPS:EGK:1,2009-09-01T13:06:00Z,27.6010,-82.7510,1017.44,1111122 
COMPS,ioos:station:USF.COMPS:EGK:1,2009-09-01T13:12:00Z,27.6010,-82.7510,1017.48,1111122 
COMPS,ioos:station:USF.COMPS:EGK:1,2009-09-01T13:18:00Z,27.6010,-82.7510,1017.46,1111122 
COMPS,ioos:station:USF.COMPS:EGK:1,2009-09-01T13:24:00Z,27.6010,-82.7510,1017.49,1111122 
COMPS,ioos:station:USF.COMPS:EGK:1,2009-09-01T13:30:00Z,27.6010,-82.7510,1017.48,1111122 
COMPS,ioos:station:USF.COMPS:EGK:1,2009-09-01T13:36:00Z,27.6010,-82.7510,1017.46,1111122 
COMPS,ioos:station:USF.COMPS:EGK:1,2009-09-01T13:42:00Z,27.6010,-82.7510,1017.46,1111122 
COMPS,ioos:station:USF.COMPS:EGK:1,2009-09-01T13:48:00Z,27.6010,-82.7510,1017.48,1111122 
COMPS,ioos:station:USF.COMPS:EGK:1,2009-09-01T13:54:00Z,27.6010,-82.7510,1017.5,1111122 
COMPS,ioos:station:USF.COMPS:EGK:1,2009-09-01T14:00:00Z,27.6010,-82.7510,1017.6,1111122 
COMPS,ioos:station:USF.COMPS:EGK:1,2009-09-01T14:06:00Z,27.6010,-82.7510,1017.56,1111122 
COMPS,ioos:station:USF.COMPS:EGK:1,2009-09-01T14:12:00Z,27.6010,-82.7510,1017.53,1111122 
COMPS,ioos:station:USF.COMPS:EGK:1,2009-09-01T14:18:00Z,27.6010,-82.7510,1017.5,1111122 
COMPS,ioos:station:USF.COMPS:EGK:1,2009-09-01T14:24:00Z,27.6010,-82.7510,1017.62,1111122 
COMPS,ioos:station:USF.COMPS:EGK:1,2009-09-01T14:30:00Z,27.6010,-82.7510,1017.68,1111122 
COMPS,ioos:station:USF.COMPS:EGK:1,2009-09-01T14:36:00Z,27.6010,-82.7510,1017.73,1111122 
COMPS,ioos:station:USF.COMPS:EGK:1,2009-09-01T14:42:00Z,27.6010,-82.7510,1017.85,1111122 
COMPS,ioos:station:USF.COMPS:EGK:1,2009-09-01T14:48:00Z,27.6010,-82.7510,1017.86,1111122 
COMPS,ioos:station:USF.COMPS:EGK:1,2009-09-01T14:54:00Z,27.6010,-82.7510,1017.89,1111122 
COMPS,ioos:station:USF.COMPS:EGK:1,2009-09-01T15:00:00Z,27.6010,-82.7510,1017.96,1111122 
COMPS,ioos:station:USF.COMPS:EGK:1,2009-09-01T15:06:00Z,27.6010,-82.7510,1018.04,1111122 
COMPS,ioos:station:USF.COMPS:EGK:1,2009-09-01T15:12:00Z,27.6010,-82.7510,1018.02,1111122 
COMPS,ioos:station:USF.COMPS:EGK:1,2009-09-01T15:18:00Z,27.6010,-82.7510,1018.01,1111122 
COMPS,ioos:station:USF.COMPS:EGK:1,2009-09-01T15:24:00Z,27.6010,-82.7510,1018.08,1111122 
COMPS,ioos:station:USF.COMPS:EGK:1,2009-09-01T15:30:00Z,27.6010,-82.7510,1018.16,1111122 
COMPS,ioos:station:USF.COMPS:EGK:1,2009-09-01T15:36:00Z,27.6010,-82.7510,1018.16,1111122 
COMPS,ioos:station:USF.COMPS:EGK:1,2009-09-01T15:42:00Z,27.6010,-82.7510,1018.13,1111122 
COMPS,ioos:station:USF.COMPS:EGK:1,2009-09-01T15:48:00Z,27.6010,-82.7510,1018.13,1111122 
COMPS,ioos:station:USF.COMPS:EGK:1,2009-09-01T15:54:00Z,27.6010,-82.7510,1018.04,1111122 
COMPS,ioos:station:USF.COMPS:EGK:1,2009-09-01T16:00:00Z,27.6010,-82.7510,1017.93,1111122 
COMPS,ioos:station:USF.COMPS:EGK:1,2009-09-01T16:06:00Z,27.6010,-82.7510,1017.77,1111122 
COMPS,ioos:station:USF.COMPS:EGK:1,2009-09-01T16:12:00Z,27.6010,-82.7510,1017.72,1111122 
COMPS,ioos:station:USF.COMPS:EGK:1,2009-09-01T16:18:00Z,27.6010,-82.7510,1017.66,1111122 
COMPS,ioos:station:USF.COMPS:EGK:1,2009-09-01T16:24:00Z,27.6010,-82.7510,1017.61,1111122 
COMPS,ioos:station:USF.COMPS:EGK:1,2009-09-01T16:30:00Z,27.6010,-82.7510,1017.54,1111122 
COMPS,ioos:station:USF.COMPS:EGK:1,2009-09-01T16:36:00Z,27.6010,-82.7510,1017.56,1111122 
COMPS,ioos:station:USF.COMPS:EGK:1,2009-09-01T16:42:00Z,27.6010,-82.7510,1017.7,1111122 
COMPS,ioos:station:USF.COMPS:EGK:1,2009-09-01T16:48:00Z,27.6010,-82.7510,1017.84,1111122 
COMPS,ioos:station:USF.COMPS:EGK:1,2009-09-01T16:54:00Z,27.6010,-82.7510,1017.9,1111122 
COMPS,ioos:station:USF.COMPS:EGK:1,2009-09-01T17:00:00Z,27.6010,-82.7510,1017.81,1111122 
COMPS,ioos:station:USF.COMPS:EGK:1,2009-09-01T17:06:00Z,27.6010,-82.7510,1017.73,1111122 
COMPS,ioos:station:USF.COMPS:EGK:1,2009-09-01T17:12:00Z,27.6010,-82.7510,1017.74,1111122 
COMPS,ioos:station:USF.COMPS:EGK:1,2009-09-01T17:18:00Z,27.6010,-82.7510,1017.73,1111122 
COMPS,ioos:station:USF.COMPS:EGK:1,2009-09-01T17:24:00Z,27.6010,-82.7510,1017.72,1111122 
COMPS,ioos:station:USF.COMPS:EGK:1,2009-09-01T17:30:00Z,27.6010,-82.7510,1017.8,1111122 
COMPS,ioos:station:USF.COMPS:EGK:1,2009-09-01T17:36:00Z,27.6010,-82.7510,1017.92,1111122 
COMPS,ioos:station:USF.COMPS:EGK:1,2009-09-01T17:42:00Z,27.6010,-82.7510,1017.85,1111122 
COMPS,ioos:station:USF.COMPS:EGK:1,2009-09-01T17:48:00Z,27.6010,-82.7510,1017.72,1111122 
COMPS,ioos:station:USF.COMPS:EGK:1,2009-09-01T17:54:00Z,27.6010,-82.7510,1017.72,1111122 
COMPS,ioos:station:USF.COMPS:EGK:1,2009-09-01T18:00:00Z,27.6010,-82.7510,1017.7,1111122 
COMPS,ioos:station:USF.COMPS:EGK:1,2009-09-01T18:06:00Z,27.6010,-82.7510,1017.62,1111122 
COMPS,ioos:station:USF.COMPS:EGK:1,2009-09-01T18:12:00Z,27.6010,-82.7510,1017.48,1111122 
COMPS,ioos:station:USF.COMPS:EGK:1,2009-09-01T18:18:00Z,27.6010,-82.7510,1017.48,1111122 
COMPS,ioos:station:USF.COMPS:EGK:1,2009-09-01T18:24:00Z,27.6010,-82.7510,1017.41,1111122 
COMPS,ioos:station:USF.COMPS:EGK:1,2009-09-01T18:30:00Z,27.6010,-82.7510,1017.32,1111122 
COMPS,ioos:station:USF.COMPS:EGK:1,2009-09-01T18:36:00Z,27.6010,-82.7510,1017.14,1111122 
COMPS,ioos:station:USF.COMPS:EGK:1,2009-09-01T18:42:00Z,27.6010,-82.7510,1017.09,1111122 
COMPS,ioos:station:USF.COMPS:EGK:1,2009-09-01T18:48:00Z,27.6010,-82.7510,1016.92,1111122 
COMPS,ioos:station:USF.COMPS:EGK:1,2009-09-01T18:54:00Z,27.6010,-82.7510,1016.74,1111122 
COMPS,ioos:station:USF.COMPS:EGK:1,2009-09-01T19:00:00Z,27.6010,-82.7510,1016.5,1111122 
COMPS,ioos:station:USF.COMPS:EGK:1,2009-09-01T19:06:00Z,27.6010,-82.7510,1016.49,1111122 
COMPS,ioos:station:USF.COMPS:EGK:1,2009-09-01T19:12:00Z,27.6010,-82.7510,1016.41,1111122 
COMPS,ioos:station:USF.COMPS:EGK:1,2009-09-01T19:18:00Z,27.6010,-82.7510,1016.18,1111122 
COMPS,ioos:station:USF.COMPS:EGK:1,2009-09-01T19:24:00Z,27.6010,-82.7510,1016.05,1111122 
COMPS,ioos:station:USF.COMPS:EGK:1,2009-09-01T19:30:00Z,27.6010,-82.7510,1015.98,1111122 
COMPS,ioos:station:USF.COMPS:EGK:1,2009-09-01T19:36:00Z,27.6010,-82.7510,1015.82,1111122 
COMPS,ioos:station:USF.COMPS:EGK:1,2009-09-01T19:42:00Z,27.6010,-82.7510,1015.68,1111122 
COMPS,ioos:station:USF.COMPS:EGK:1,2009-09-01T19:48:00Z,27.6010,-82.7510,1015.46,1111122 
COMPS,ioos:station:USF.COMPS:EGK:1,2009-09-01T19:54:00Z,27.6010,-82.7510,1015.41,1111122 
COMPS,ioos:station:USF.COMPS:EGK:1,2009-09-02T13:00:00Z,27.6010,-82.7510,1015.86,1111122 
COMPS,ioos:station:USF.COMPS:EGK:1,2009-09-02T13:06:00Z,27.6010,-82.7510,1015.84,1111122 
COMPS,ioos:station:USF.COMPS:EGK:1,2009-09-02T13:12:00Z,27.6010,-82.7510,1015.88,1111122 
COMPS,ioos:station:USF.COMPS:EGK:1,2009-09-02T13:18:00Z,27.6010,-82.7510,1015.92,1111122 
COMPS,ioos:station:USF.COMPS:EGK:1,2009-09-02T13:24:00Z,27.6010,-82.7510,1015.97,1111122 
COMPS,ioos:station:USF.COMPS:EGK:1,2009-09-02T13:30:00Z,27.6010,-82.7510,1015.97,1111122 
COMPS,ioos:station:USF.COMPS:EGK:1,2009-09-02T13:36:00Z,27.6010,-82.7510,1016.05,1111122 
COMPS,ioos:station:USF.COMPS:EGK:1,2009-09-02T13:42:00Z,27.6010,-82.7510,1016.1,1111122 
COMPS,ioos:station:USF.COMPS:EGK:1,2009-09-02T13:48:00Z,27.6010,-82.7510,1015.97,1111122 
COMPS,ioos:station:USF.COMPS:EGK:1,2009-09-02T13:54:00Z,27.6010,-82.7510,1015.9,1111122 
COMPS,ioos:station:USF.COMPS:EGK:1,2009-09-02T14:00:00Z,27.6010,-82.7510,1015.86,1111122 
COMPS,ioos:station:USF.COMPS:EGK:1,2009-09-02T14:06:00Z,27.6010,-82.7510,1015.81,1111122 
COMPS,ioos:station:USF.COMPS:EGK:1,2009-09-02T14:12:00Z,27.6010,-82.7510,1015.84,1111122 
COMPS,ioos:station:USF.COMPS:EGK:1,2009-09-02T14:18:00Z,27.6010,-82.7510,1015.94,1111122 
COMPS,ioos:station:USF.COMPS:EGK:1,2009-09-02T14:24:00Z,27.6010,-82.7510,1015.9,1111122 
COMPS,ioos:station:USF.COMPS:EGK:1,2009-09-02T14:30:00Z,27.6010,-82.7510,1015.86,1111122 
COMPS,ioos:station:USF.COMPS:EGK:1,2009-09-02T14:36:00Z,27.6010,-82.7510,1015.88,1111122 
COMPS,ioos:station:USF.COMPS:EGK:1,2009-09-02T14:42:00Z,27.6010,-82.7510,1015.86,1111122 
COMPS,ioos:station:USF.COMPS:EGK:1,2009-09-02T14:48:00Z,27.6010,-82.7510,1015.88,1111122 
COMPS,ioos:station:USF.COMPS:EGK:1,2009-09-02T14:54:00Z,27.6010,-82.7510,1015.88,1111122 
COMPS,ioos:station:USF.COMPS:EGK:1,2009-09-02T15:00:00Z,27.6010,-82.7510,1015.86,1111122 
COMPS,ioos:station:USF.COMPS:EGK:1,2009-09-02T15:06:00Z,27.6010,-82.7510,1015.82,1111122 
COMPS,ioos:station:USF.COMPS:EGK:1,2009-09-02T15:12:00Z,27.6010,-82.7510,1015.9,1111122 
COMPS,ioos:station:USF.COMPS:EGK:1,2009-09-02T15:18:00Z,27.6010,-82.7510,1015.92,1111122 
COMPS,ioos:station:USF.COMPS:EGK:1,2009-09-02T15:24:00Z,27.6010,-82.7510,1015.82,1111122 
COMPS,ioos:station:USF.COMPS:EGK:1,2009-09-02T15:30:00Z,27.6010,-82.7510,1015.92,1111122 
COMPS,ioos:station:USF.COMPS:EGK:1,2009-09-02T15:36:00Z,27.6010,-82.7510,1015.9,1111122 
COMPS,ioos:station:USF.COMPS:EGK:1,2009-09-02T15:42:00Z,27.6010,-82.7510,1015.97,1111122 
COMPS,ioos:station:USF.COMPS:EGK:1,2009-09-02T15:48:00Z,27.6010,-82.7510,1016.0,1111122 
COMPS,ioos:station:USF.COMPS:EGK:1,2009-09-02T15:54:00Z,27.6010,-82.7510,1016.04,1111122 
COMPS,ioos:station:USF.COMPS:EGK:1,2009-09-02T16:00:00Z,27.6010,-82.7510,1015.98,1111122 
COMPS,ioos:station:USF.COMPS:EGK:1,2009-09-02T16:06:00Z,27.6010,-82.7510,1015.96,1111122 
COMPS,ioos:station:USF.COMPS:EGK:1,2009-09-02T16:12:00Z,27.6010,-82.7510,1015.92,1111122 
COMPS,ioos:station:USF.COMPS:EGK:1,2009-09-02T16:18:00Z,27.6010,-82.7510,1015.89,1111122 
COMPS,ioos:station:USF.COMPS:EGK:1,2009-09-02T16:24:00Z,27.6010,-82.7510,1015.82,1111122 
COMPS,ioos:station:USF.COMPS:EGK:1,2009-09-02T16:30:00Z,27.6010,-82.7510,1015.81,1111122 
COMPS,ioos:station:USF.COMPS:EGK:1,2009-09-02T16:36:00Z,27.6010,-82.7510,1015.81,1111122 
COMPS,ioos:station:USF.COMPS:EGK:1,2009-09-02T16:42:00Z,27.6010,-82.7510,1015.81,1111122 
COMPS,ioos:station:USF.COMPS:EGK:1,2009-09-02T16:48:00Z,27.6010,-82.7510,1015.72,1111122 
COMPS,ioos:station:USF.COMPS:EGK:1,2009-09-02T16:54:00Z,27.6010,-82.7510,1015.5,1111122 
COMPS,ioos:station:USF.COMPS:EGK:1,2009-09-02T17:00:00Z,27.6010,-82.7510,1015.41,1111122 
COMPS,ioos:station:USF.COMPS:EGK:1,2009-09-02T17:06:00Z,27.6010,-82.7510,1015.3,1111122 
COMPS,ioos:station:USF.COMPS:EGK:1,2009-09-02T17:12:00Z,27.6010,-82.7510,1015.26,1111122 
COMPS,ioos:station:USF.COMPS:EGK:1,2009-09-02T17:18:00Z,27.6010,-82.7510,1015.26,1111122 
COMPS,ioos:station:USF.COMPS:EGK:1,2009-09-02T17:24:00Z,27.6010,-82.7510,1015.26,1111122 
COMPS,ioos:station:USF.COMPS:EGK:1,2009-09-02T17:30:00Z,27.6010,-82.7510,1015.26,1111122 
COMPS,ioos:station:USF.COMPS:EGK:1,2009-09-02T17:36:00Z,27.6010,-82.7510,1015.26,1111122 
COMPS,ioos:station:USF.COMPS:EGK:1,2009-09-02T17:42:00Z,27.6010,-82.7510,1015.16,1111122 
COMPS,ioos:station:USF.COMPS:EGK:1,2009-09-02T17:48:00Z,27.6010,-82.7510,1015.13,1111122 
COMPS,ioos:station:USF.COMPS:EGK:1,2009-09-02T17:54:00Z,27.6010,-82.7510,1015.13,1111122 
COMPS,ioos:station:USF.COMPS:EGK:1,2009-09-02T18:00:00Z,27.6010,-82.7510,1015.09,1111122 
COMPS,ioos:station:USF.COMPS:EGK:1,2009-09-02T18:06:00Z,27.6010,-82.7510,1014.96,1111122 
COMPS,ioos:station:USF.COMPS:EGK:1,2009-09-02T18:12:00Z,27.6010,-82.7510,1014.9,1111122 
COMPS,ioos:station:USF.COMPS:EGK:1,2009-09-02T18:18:00Z,27.6010,-82.7510,1014.85,1111122 
COMPS,ioos:station:USF.COMPS:EGK:1,2009-09-02T18:24:00Z,27.6010,-82.7510,1014.76,1111122 
COMPS,ioos:station:USF.COMPS:EGK:1,2009-09-02T18:30:00Z,27.6010,-82.7510,1014.58,1111122 
COMPS,ioos:station:USF.COMPS:EGK:1,2009-09-02T18:36:00Z,27.6010,-82.7510,1014.45,1111122 
COMPS,ioos:station:USF.COMPS:EGK:1,2009-09-02T18:42:00Z,27.6010,-82.7510,1014.37,1111122 
COMPS,ioos:station:USF.COMPS:EGK:1,2009-09-02T18:48:00Z,27.6010,-82.7510,1014.26,1111122 
COMPS,ioos:station:USF.COMPS:EGK:1,2009-09-02T18:54:00Z,27.6010,-82.7510,1014.18,1111122 
COMPS,ioos:station:USF.COMPS:EGK:1,2009-09-02T19:00:00Z,27.6010,-82.7510,1014.01,1111122 
COMPS,ioos:station:USF.COMPS:EGK:1,2009-09-02T19:06:00Z,27.6010,-82.7510,1013.9,1111122 
COMPS,ioos:station:USF.COMPS:EGK:1,2009-09-02T19:12:00Z,27.6010,-82.7510,1013.81,1111122 
COMPS,ioos:station:USF.COMPS:EGK:1,2009-09-02T19:18:00Z,27.6010,-82.7510,1013.73,1111122 
COMPS,ioos:station:USF.COMPS:EGK:1,2009-09-02T19:24:00Z,27.6010,-82.7510,1013.73,1111122 
COMPS,ioos:station:USF.COMPS:EGK:1,2009-09-02T19:30:00Z,27.6010,-82.7510,1013.57,1111122 